{"data":{"norad_id":63800,"epoch":"2026-09-20T09:51:52.287840Z","epoch_age_seconds":157604,"freshness":"FRESH","line1":"1 63800U 25091AB  26263.41102185  .00004733  00000+0  18138-3 0  9995","line2":"2 63800  43.0048  32.7223 0000911 283.4256  76.6495 15.27588174 78794","mean_motion":15.27588174,"eccentricity":9.11e-5,"inclination_deg":43.0048,"raan_deg":32.7223,"arg_perigee_deg":283.4256,"mean_anomaly_deg":76.6495,"bstar":0.00018138,"rev_number":7879,"period_min":94.266244299951,"perigee_km":482.39956842861,"apogee_km":483.64967207582,"semimajor_km":6861.1616202522,"source":"CELESTRAK","updated_at":"2026-09-21T09:00:35.102973Z"}}